This demonstration page uses our WeatherBlox Daily Observations layout. Learn more.

38.88101, -77.10428

Hourly Observations for November 27, 2016

Temp ( °F °C ) Dew Point ( °F °C ) Humidity (%) Winds ( mph kmh ) Pressure ( in mb ) Visibility ( mi km ) Precip ( " mm )
12:52 am 00:52 Mostly Clear 42 5.6 30 -1.1 62 62 NW 8 13 30.21 1023 10 16.09344 0 0
1:52 am 01:52 Partly Cloudy 40 4.4 29 -1.7 65 65 Calm 30.21 1023 10 16.09344 0 0
2:52 am 02:52 Clear 41 5 29 -1.7 62 62 N 3 6 30.21 1023 10 16.09344 0 0
3:52 am 03:52 Mostly Cloudy 40 4.4 29 -1.7 65 65 N 3 6 30.21 1023 10 16.09344 0 0
4:52 am 04:52 Mostly Cloudy 41 5 26 -3.3 55 55 NW 5 7 30.21 1023 10 16.09344 0 0
5:52 am 05:52 Mostly Clear 40 4.4 26 -3.3 58 58 W 6 9 30.24 1024 10 16.09344 0 0
6:52 am 06:52 Mostly Clear 40 4.4 27 -2.8 60 60 WNW 8 13 30.24 1024 10 16.09344 0 0
7:52 am 07:52 Mostly Sunny 43 6.1 27 -2.8 53 53 WNW 10 17 30.24 1024 10 16.09344 0 0
8:52 am 08:52 Mostly Sunny 46 7.8 27 -2.8 47 47 NW 12 19 30.24 1024 10 16.09344 0 0
9:52 am 09:52 Mostly Sunny 48 8.9 27 -2.8 44 44 NW 14 22 30.27 1025 10 16.09344 0 0
10:52 am 10:52 Mostly Sunny 50 10 28 -2.2 43 43 WNW 13 20 30.27 1025 10 16.09344 0 0
11:52 am 11:52 Mostly Sunny 50 10 28 -2.2 43 43 NNW 7 11 30.24 1024 10 16.09344 0 0
12:52 pm 12:52 Partly Cloudy 52 11.1 28 -2.2 40 40 WNW 9 15 30.21 1023 10 16.09344 0 0
1:52 pm 13:52 Mostly Sunny 53 11.7 27 -2.8 37 37 NNW 8 13 30.21 1023 10 16.09344 0 0
2:52 pm 14:52 Mostly Sunny 53 11.7 27 -2.8 37 37 NW 6 9 30.18 1022 10 16.09344 0 0
3:52 pm 15:52 Mostly Sunny 52 11.1 27 -2.8 38 38 NW 9 15 30.18 1022 10 16.09344 0 0
4:52 pm 16:52 Mostly Clear 50 10 27 -2.8 41 41 W 8 13 30.18 1022 10 16.09344 0 0
5:52 pm 17:52 Mostly Clear 47 8.3 28 -2.2 48 48 N 7 11 30.21 1023 10 16.09344 0 0
6:52 pm 18:52 Clear 47 8.3 29 -1.7 50 50 Calm 30.21 1023 10 16.09344 0 0
7:52 pm 19:52 Clear 45 7.2 30 -1.1 56 56 Calm 30.21 1023 10 16.09344 0 0
8:52 pm 20:52 Clear 44 6.7 34 1.1 68 68 Calm 30.21 1023 10 16.09344 0 0
9:52 pm 21:52 Clear 40 4.4 31 -0.6 70 70 SSW 6 9 30.21 1023 10 16.09344 0 0
10:52 pm 22:52 Clear 41 5 34 1.1 76 76 Calm 30.21 1023 10 16.09344 0 0
11:52 pm 23:52 Mostly Cloudy 40 4.4 34 1.1 79 79 Calm 30.21 1023 10 16.09344 0 0

Powered by AerisWeather